[Date Prev][Date Next][Thread Prev][Thread Next] - [Date Index][Thread Index][Author Index]

2 Line ISS Keps 3-5



ISS
1 25544U 98067A   02064.17520833  .00077743  00000-0  86752-3 0  1453
2 25544  51.6367 215.5129 0010244 140.0827 212.0015 15.62037265187800


----
Via the sarex mailing list at AMSAT.ORG courtesy of AMSAT-NA.
To unsubscribe, send "unsubscribe sarex" to Majordomo@amsat.org



AMSAT Top AMSAT Home